Skip Page Navigation
NASA JPL Caltech
NASA Logo - Jet Propulsion Laboratory + View the NASA Portal
+ Center for Near-Earth Object Studies
JPL Home Earth Solar System Stars & Galaxies Technology
JPL Solar System Dynamics
BODIES ORBITS EPHEMERIDES TOOLS PHYSICAL DATA DISCOVERY FAQ SITE MAP
IMPORTANT: The SSD Announcement email list is now available. Major changes are coming in the near future, including possible hostname and/or URL changes. To be notified of such changes, subscribe to this email list.

Please visit this page for more details.


JPL Small-Body Database Browser
Search: [ help ]  
27436 (2000 FA37)
Classification: Main-belt Asteroid          SPK-ID: 2027436
Ephemeris | Orbit Diagram | Orbital Elements | Mission Design | Physical Parameters | Discovery Circumstances | Close-Approach Data ]

[ show orbit diagram ]
Orbital Elements at Epoch 2459000.5 (2020-May-31.0) TDB
Reference: JPL 26 (heliocentric ecliptic J2000)
 Element Value Uncertainty (1-sigma)   Units 
e .141439403400167 4.0292e-08  
a 3.106818890979349 2.1933e-08 au
q 2.667392280566861 1.2895e-07 au
i 3.105264149261457 4.0786e-06 deg
node 96.02946324142478 9.1937e-05 deg
peri 146.858867916298 9.4105e-05 deg
M 211.3281698061437 2.3778e-05 deg
tp 2459826.535133972302
(2022-Sep-04.03513397)
0.00013734 TDB
period 2000.194978714384
5.48
2.1181e-05
5.799e-08
d
yr
n .1799824536262901 1.9059e-09 deg/d
Q 3.546245501391836 2.5035e-08 au
  Orbit Determination Parameters
   # obs. used (total)      1307  
   data-arc span      11309 days (30.96 yr)  
   first obs. used      1989-02-04  
   last obs. used      2020-01-22  
   planetary ephem.      DE431  
   SB-pert. ephem.      SB431-N16  
   condition code      0  
   norm. resid. RMS      .56669  
   source      ORB  
   producer      Otto Matic  
   solution date      2020-Feb-23 01:03:34  

Additional Information
 Earth MOID = 1.6551 au 
 Jupiter MOID = 1.47244 au 
 T_jup = 3.202 
[ show covariance matrix ]

Ephemeris | Orbit Diagram | Orbital Elements | Mission Design | Physical Parameters | Discovery Circumstances | Close-Approach Data ]

Physical Parameter Table
Parameter Symbol Value Units Sigma Reference Notes
absolute magnitude H 13.8   n/a MPO416982  
diameter diameter 8.175 km 0.144 urn:nasa:pds:neowise_diameters_albedos::2.0[mainbelt] (http://adsabs.harvard.edu/abs/2011ApJ...741...68M)  
geometric albedo albedo 0.073   0.015 urn:nasa:pds:neowise_diameters_albedos::2.0[mainbelt] (http://adsabs.harvard.edu/abs/2011ApJ...741...68M)  

27436 (2000 FA37)          Discovered 2000-Mar-29 by LINEAR at Socorro
Reference: 20010804/Numbers.arcLast Updated: 2004-04-19

[ show close-approach data ]
Alternate Designations
 2000 FA37 = 1989 CR6 = 1997 WL15 
Ephemeris | Orbit Diagram | Orbital Elements | Mission Design | Physical Parameters | Discovery Circumstances | Close-Approach Data ]
ABOUT SSD CREDITS/AWARDS PRIVACY/COPYRIGHT GLOSSARY LINKS
FirstGov 2020-Mar-30 18:05 UT
(server date/time)  
NASA Home Page
Site Manager:   Ryan S. Park
Webmaster  Alan B. Chamberlin